Weather History for Livingston, MT

Change the Weather History Date:

Saturday, December 1, 2012

  Actual Average Record
Temperature  
Mean Temperature 48 °F 28 °F  
Max Temperature 55 °F 37 °F 62 °F (1995)
Min Temperature 42 °F 19 °F -20 °F (1985)
Degree Days  
Heating Degree Days 16 37  
Month to date heating degree days 37  
Since 1 July heating degree days 1996  
Moisture  
Dew Point 29 °F    
Average Humidity 47    
Maximum Humidity 76    
Minimum Humidity 30    
Precipitation  
Precipitation 0.00 in 0.02 in 0.32 in (1950)
Month to date precipitation 0.02  
Year to date precipitation 14.31  
Sea Level Pressure  
Sea Level Pressure 29.69 in    
Wind  
Wind Speed 20 mph (SW)    
Max Wind Speed 41 mph    
Max Gust Speed 53 mph    
Visibility 10 miles    
Events Rain    
T = Trace of Precipitation, MM = Missing Value Source: NWS Daily Summary

Daily Weather History Graph

Daily Weather History Graph

Search for Another Location

Airport:

Trip Planner

Search our weather history database for the weather conditions in past years. The results will help you decide how hot, cold, wet, or windy it might be!

Date:

Astronomy

Dec. 01, 2012 Rise Set
Actual Time 7:42 AM MST 4:39 PM MST
Civil Twilight 7:09 AM MST 5:12 PM MST
Nautical Twilight 6:31 AM MST 5:49 PM MST
Astronomical Twilight 5:56 AM MST 6:25 PM MST
Moon 7:35 PM MST (12/1) 9:55 AM MST (12/1)
Length of Visible Light 10h 03m
Length of Day
8h 56m
Waning Gibbous, 91% of the Moon is Illuminated
Dec 1
Waning Gibbous
Dec 6
Last Quarter
Dec 13
New
Dec 19
First Quarter
Dec 28
Full

Hourly Weather History & Observations

Time (MST) Temp. Windchill Dew Point Humidity Pressure Visibility Wind Dir Wind Speed Gust Speed Precip Events Conditions
12:53 AM 45.0 °F 39.7 °F 34.0 °F 65% 29.67 in 10.0 mi WNW 10.4 mph 20.7 mph N/A   Partly Cloudy
1:53 AM 46.9 °F - 33.1 °F 59% 29.68 in 10.0 mi WNW 11.5 mph 23.0 mph N/A   Overcast
2:53 AM 43.0 °F 36.4 °F 35.1 °F 74% 29.73 in 10.0 mi NNW 12.7 mph - N/A   Overcast
3:53 AM 42.1 °F 35.2 °F 35.1 °F 76% 29.73 in 10.0 mi NW 12.7 mph - N/A   Overcast
4:53 AM 44.1 °F 40.1 °F 33.1 °F 65% 29.73 in 10.0 mi Variable 6.9 mph - N/A   Overcast
5:29 AM 48.2 °F - 28.4 °F 46% 29.74 in 10.0 mi SSW 20.7 mph 26.5 mph N/A   Overcast
5:53 AM 48.0 °F - 28.0 °F 46% 29.70 in 10.0 mi SW 24.2 mph 33.4 mph N/A   Overcast
6:53 AM 48.0 °F - 26.1 °F 42% 29.70 in 10.0 mi SW 31.1 mph 41.4 mph N/A   Clear
7:53 AM 48.0 °F - 26.1 °F 42% 29.73 in 10.0 mi SSW 28.8 mph 44.9 mph N/A   Clear
8:53 AM 48.9 °F - 27.0 °F 43% 29.72 in 10.0 mi SSW 29.9 mph 39.1 mph N/A   Clear
9:53 AM 51.1 °F - 27.0 °F 39% 29.73 in 10.0 mi SSW 20.7 mph 38.0 mph N/A   Clear
11:53 AM 55.0 °F - 24.1 °F 30% 29.71 in 10.0 mi SSW 34.5 mph 41.4 mph N/A   Clear
12:53 PM 54.0 °F - 24.1 °F 31% 29.69 in 10.0 mi SW 28.8 mph 38.0 mph N/A   Clear
1:53 PM 55.0 °F - 26.1 °F 33% 29.67 in 10.0 mi SW 33.4 mph 42.6 mph N/A   Mostly Cloudy
2:53 PM 53.1 °F - 27.0 °F 37% 29.65 in 10.0 mi SW 33.4 mph 44.9 mph N/A   Clear
3:53 PM 52.0 °F - 28.0 °F 40% 29.66 in 10.0 mi SSW 41.4 mph 52.9 mph N/A   Clear
4:53 PM 50.0 °F - 30.0 °F 46% 29.70 in 10.0 mi West 25.3 mph 32.2 mph N/A   Overcast
5:53 PM 50.0 °F - 30.0 °F 46% 29.68 in 10.0 mi WSW 20.7 mph 29.9 mph N/A   Mostly Cloudy
6:53 PM 48.9 °F - 33.1 °F 54% 29.71 in 10.0 mi West 23.0 mph 32.2 mph 0.00 in Rain Light Rain
7:53 PM 50.0 °F - 28.9 °F 44% 29.68 in 10.0 mi SW 28.8 mph 36.8 mph 0.00 in   Scattered Clouds
8:53 PM 51.1 °F - 28.9 °F 43% 29.68 in 10.0 mi SW 28.8 mph 39.1 mph N/A   Mostly Cloudy
9:53 PM 51.1 °F - 28.9 °F 43% 29.68 in 10.0 mi SSW 31.1 mph 40.3 mph N/A   Overcast
10:53 PM 51.1 °F - 28.0 °F 41% 29.64 in 10.0 mi SW 32.2 mph 44.9 mph N/A   Mostly Cloudy
11:53 PM 51.1 °F - 28.9 °F 43% 29.65 in 10.0 mi SW 19.6 mph 33.4 mph N/A   Scattered Clouds